ニート彗星

163P/NEAT (2019)

English version
Home page
Updated on April 17, 2020

---------------------------------------------------------------------

・ プロフィール

・ 軌道要素

Epoch 2019 Aug. 25.0 TT = JDT 2458720.5
T 2019 Aug. 5.23659 TT                                  Rudenko
q   2.0666267            (2000.0)            P               Q
n   0.13458075     Peri.  349.69961     -0.03553851     -0.97594542
a   3.7712104      Node   102.09150     +0.93183829     -0.11013718
e   0.4519991      Incl.   12.70782     +0.36112936     +0.18814976
P   7.32
From 322 observations 1990 Oct. 24-2012 Jan. 20, mean residual 0".6.

・ 光度変化

        m1 = 15.0 + 5 logΔ + 10.0 log r

---------------------------------------------------------------------

軌道要素はM.P.E.C. 2020-F67に掲載されたものです。
光度グラフはComet for Windowsで作成したものです。

---------------------------------------------------------------------

Copyright(C) Seiichi Yoshida (comet@aerith.net). All rights reserved.